Lid_Strength_Index
12 12 11 11 10 9 8 8 8 7 6 5 6 7 8 9 10 10 9 8 8 7 6 6 5 5 5 6 5 5 6 6 7 6 5 5 6 7 7 6 6 7 8
12 12 12 11 11 10 10 9 9 8 7 7 7 8 10 11 11 11 11 11 10 10 9 8 8 8 7 7 7 6 6 6 6 8 6 7 6 7 6 6 7 8 7
12 12 12 12 11 12 11 10 10 9 8 8 9 10 10 11 11 12 12 12 12 11 11 11 11 10 9 9 9 8 7 7 6 7 8 8 9 9 6 6 7 7 7
13 13 13 13 13 13 12 11 11 10 10 9 9 10 11 13 13 13 12 12 12 12 11 11 11 11 11 11 11 10 10 8 9 7 7 6 8 10 10 7 7 8 8
12 13 13 14 14 13 13 12 12 12 11 11 11 11 12 12 12 12 12 12 12 12 12 12 11 11 11 11 11 11 10 10 11 10 10 9 8 7 10 10 10 10 9
13 13 14 14 14 14 13 13 13 13 12 12 12 12 12 12 12 12 12 12 12 12 12 12 12 12 12 11 11 11 11 11 11 11 11 11 11 12 12 13 12 11 10
13 14 14 14 15 14 14 14 13 14 13 13 13 12 12 12 12 12 12 12 12 12 12 12 11 12 12 11 11 11 11 11 11 11 11 11 11 11 11 12 13 13 10
13 14 14 14 14 14 14 14 14 14 13 13 13 12 12 12 12 12 12 12 12 13 12 12 12 12 12 12 11 11 11 11 11 12 11 11 11 11 11 12 13 14 13
13 14 14 14 14 14 14 13 14 14 13 13 13 13 13 12 13 13 13 13 13 13 12 12 12 12 12 12 12 11 12 11 11 11 11 11 11 10 10 11 11 13 15
13 13 13 14 14 14 14 14 14 14 13 13 13 13 13 12 12 12 12 12 13 13 13 13 12 12 12 12 12 12 11 12 11 11 12 11 11 11 11 11 11 11 12
13 13 13 13 14 13 13 13 13 13 13 13 13 13 12 12 12 12 12 12 12 13 13 13 13 13 12 12 12 12 12 12 12 11 12 12 11 11 11 11 11 11 12
12 12 12 12 13 14 14 13 13 13 13 12 12 12 12 12 12 12 12 12 13 12 13 13 13 13 13 13 13 13 12 13 13 13 13 13 12 12 12 12 12 12 12
12 12 12 12 12 13 13 13 13 13 12 13 12 12 12 12 12 12 12 12 12 13 13 13 14 14 14 13 13 13 13 13 13 13 13 13 13 13 13 13 13 13 12
12 12 12 11 11 12 13 13 13 13 13 13 13 12 12 12 12 12 12 12 13 13 13 13 14 14 14 14 14 13 13 12 12 12 12 12 12 12 12 13 12 12 12
11 11 11 11 11 11 12 12 13 13 13 13 13 12 12 11 11 12 13 13 13 14 14 14 14 14 14 14 13 12 12 12 12 11 11 11 12 12 12 12 12 13 13
11 11 10 10 11 12 12 12 12 13 12 12 12 11 10 11 12 13 13 14 14 14 15 15 15 15 14 13 12 11 11 11 12 12 12 12 12 12 12 12 11 11 13
11 11 10 10 11 11 11 12 12 12 12 12 11 11 11 12 12 13 14 14 14 14 15 14 14 14 13 13 11 11 11 11 12 12 12 13 12 12 13 12 11 11 11
11 11 10 10 10 11 11 11 11 11 12 11 11 11 11 12 13 14 15 14 14 14 14 14 14 14 13 13 12 11 11 12 12 12 12 12 12 12 12 12 12 11 11
11 10 10 10 11 11 10 11 12 11 11 11 11 11 12 13 14 15 14 14 14 14 14 14 14 15 14 14 12 11 11 12 12 12 11 11 12 11 9 10 11 10 10
12 12 12 12 11 11 11 11 11 11 11 10 11 11 12 13 14 14 14 13 14 14 14 14 14 15 16 14 13 11 11 12 11 11 10 9 10 9 9 10 10 11 10
13 13 13 13 12 12 12 12 11 12 10 10 11 12 13 14 14 14 14 15 15 15 15 16 15 15 15 14 12 11 11 11 11 10 10 10 9 9 8 8 10 11 10
14 13 13 13 12 12 12 11 12 10 11 12 13 14 15 15 15 16 16 16 16 16 16 16 15 14 14 13 12 10 9 9 10 11 10 10 9 10 10 10 11 10 11
14 13 12 13 12 12 11 11 10 12 14 14 15 15 16 16 16 16 16 15 15 15 14 14 14 13 13 12 11 10 10 9 10 9 9 10 11 12 12 12 12 13 14
12 12 13 13 12 12 12 10 13 14 15 15 16 16 17 16 17 15 15 15 14 14 14 14 14 13 13 12 11 10 10 9 8 9 11 12 13 13 13 15 14 15 16
12 13 13 12 11 11 11 12 14 15 14 15 16 15 15 16 15 15 14 14 13 13 14 14 14 14 13 11 10 9 8 8 8 11 13 15 15 16 16 16 16 16 16
12 13 13 12 11 13 13 15 16 15 15 15 15 14 14 15 14 14 14 12 11 11 10 9 10 10 10 8 8 8 7 7 9 12 16 16 16 17 17 17 17 17 17